Location: Champignolles
(47.0543°N, 4.5663°E)
Time: 19:52:40
(UTC+00:00)

USA 238 DEB - Pass Details

Date: 30 November 2020
Orbit: 996 x 1216 km, 63.4° (Epoch: 22 January)

Event Time Altitude Azimuth Distance (km) Brightness Sun altitude
Rises 19:36:01 0° 235° (SW) 3,732 7.1 -36.9°
Reaches altitude 10° 19:38:38 10° 239° (WSW) 2,802 6.4 -37.4°
Enters shadow 19:43:26 45° 271° (W) 1,389 4.5 -38.2°
